RYR6JF LEPA-LOWW

Flight info

Callsign RYR6JF
Flight time N/A
Altitude 36000
Route ISTER DCT NIVDA DCT OMEDA DCT RAPUR DCT TORTU DCT ERTEV/N0445F350 DCT BARPI DCT LAPNA LAPNA2W
Aircraft B738/M-SABDFGRVYL/LB2

Departure

Time N/A
Airport Palma de Mallorca Airport (LEPA)

Arrival

Time 2026-04-26 23:50
Airport Vienna International Airport (LOWW)
Time Latitude Longitude Altitude Speed Heading
2026-04-26 22:11 41.21127 6.51479 36147 ft 448 kts 50°
2026-04-26 22:11 41.25024 6.57955 36148 ft 449 kts 50°
2026-04-26 22:12 41.28946 6.64322 36143 ft 449 kts 49°
2026-04-26 22:12 41.32937 6.70713 36147 ft 450 kts 49°
2026-04-26 22:13 41.36941 6.77137 36148 ft 448 kts 49°
2026-04-26 22:13 41.40916 6.83541 36143 ft 449 kts 49°
2026-04-26 22:14 41.44882 6.89956 36144 ft 450 kts 49°
2026-04-26 22:14 41.48840 6.96377 36145 ft 450 kts 49°
2026-04-26 22:15 41.52822 7.02852 36143 ft 451 kts 49°
2026-04-26 22:15 41.56786 7.09315 36143 ft 451 kts 49°
2026-04-26 22:16 41.60748 7.15787 36143 ft 451 kts 49°
2026-04-26 22:16 41.64691 7.22243 36141 ft 451 kts 49°
2026-04-26 22:17 41.68664 7.28762 36142 ft 451 kts 49°
2026-04-26 22:17 41.72630 7.35283 36144 ft 452 kts 49°
2026-04-26 22:18 41.76588 7.41806 36145 ft 453 kts 49°
2026-04-26 22:18 41.80531 7.48317 36145 ft 453 kts 49°
2026-04-26 22:19 41.84494 7.54875 36147 ft 453 kts 49°
2026-04-26 22:19 41.88439 7.61418 36147 ft 452 kts 49°
2026-04-26 22:20 41.91734 7.66893 36146 ft 453 kts 50°
2026-04-26 22:20 41.96346 7.74576 36148 ft 453 kts 50°
2026-04-26 22:21 42.00286 7.81155 36149 ft 454 kts 50°
2026-04-26 22:21 42.04234 7.87759 36141 ft 454 kts 50°
2026-04-26 22:22 42.08174 7.94365 36133 ft 454 kts 50°
2026-04-26 22:22 42.12130 8.01013 36135 ft 454 kts 50°
2026-04-26 22:23 42.16047 8.07611 36139 ft 453 kts 50°
2026-04-26 22:23 42.19996 8.14277 36138 ft 453 kts 50°
2026-04-26 22:24 42.23891 8.20867 36140 ft 453 kts 50°
2026-04-26 22:24 42.27808 8.27510 36143 ft 453 kts 50°
2026-04-26 22:25 42.31883 8.33992 36137 ft 451 kts 42°
2026-04-26 22:25 42.34295 8.36666 36138 ft 447 kts 30°
2026-04-26 22:25 42.37024 8.38691 36146 ft 446 kts 23°
2026-04-26 22:26 42.42682 8.41966 36140 ft 445 kts 19°
2026-04-26 22:26 42.48437 8.45013 36145 ft 444 kts 19°
2026-04-26 22:27 42.54207 8.48095 36147 ft 444 kts 19°
2026-04-26 22:27 42.59937 8.51224 36149 ft 445 kts 19°
2026-04-26 22:28 42.65648 8.54387 36148 ft 445 kts 19°
2026-04-26 22:28 42.71348 8.57568 36147 ft 445 kts 19°
2026-04-26 22:29 42.77094 8.60787 36149 ft 444 kts 19°
2026-04-26 22:29 42.82791 8.63987 36147 ft 445 kts 19°
2026-04-26 22:30 42.88500 8.67200 36153 ft 445 kts 20°
2026-04-26 22:30 42.94233 8.70433 36148 ft 445 kts 20°
2026-04-26 22:31 42.99941 8.73659 36148 ft 445 kts 20°
2026-04-26 22:31 43.05680 8.76909 36142 ft 445 kts 20°
2026-04-26 22:32 43.11362 8.80134 36137 ft 445 kts 20°
2026-04-26 22:32 43.17077 8.83382 36136 ft 444 kts 20°
2026-04-26 22:33 43.25653 8.88270 36136 ft 444 kts 20°
2026-04-26 22:34 43.31358 8.91529 36133 ft 444 kts 20°
2026-04-26 22:34 43.37102 8.94582 36131 ft 443 kts 15°
2026-04-26 22:35 43.43104 8.95989 36134 ft 437 kts
2026-04-26 22:35 43.49158 8.96132 36133 ft 436 kts 357°
2026-04-26 22:36 43.55252 8.96043 36132 ft 436 kts 359°
2026-04-26 22:36 43.58260 8.96478 36128 ft 439 kts 11°
2026-04-26 22:36 43.61161 8.97866 36135 ft 444 kts 24°
2026-04-26 22:37 43.66184 9.02801 36133 ft 450 kts 41°
2026-04-26 22:37 43.70297 9.09332 36133 ft 454 kts 53°
2026-04-26 22:38 43.73702 9.16659 36133 ft 453 kts 57°
2026-04-26 22:38 43.76996 9.24087 36131 ft 453 kts 57°
2026-04-26 22:39 43.80293 9.31490 36131 ft 453 kts 56°
2026-04-26 22:39 43.83616 9.38889 36132 ft 453 kts 56°
2026-04-26 22:40 43.86953 9.46283 36131 ft 453 kts 56°
2026-04-26 22:40 43.90280 9.53645 36132 ft 453 kts 56°
2026-04-26 22:41 43.93621 9.61046 36132 ft 453 kts 56°
2026-04-26 22:41 43.96944 9.68422 36131 ft 453 kts 56°
2026-04-26 22:42 44.00296 9.75882 36135 ft 454 kts 56°
2026-04-26 22:42 44.03641 9.83344 36134 ft 453 kts 56°
2026-04-26 22:43 44.06959 9.90762 36144 ft 454 kts 56°
2026-04-26 22:43 44.10288 9.98225 36139 ft 454 kts 56°
2026-04-26 22:44 44.13605 10.05680 36139 ft 454 kts 56°
2026-04-26 22:44 44.16909 10.13125 36142 ft 454 kts 56°
2026-04-26 22:45 44.20219 10.20603 36164 ft 454 kts 56°
2026-04-26 22:45 44.23513 10.28063 36195 ft 454 kts 56°
2026-04-26 22:46 44.26815 10.35558 36198 ft 454 kts 56°
2026-04-26 22:46 44.30129 10.43104 36185 ft 454 kts 56°
2026-04-26 22:47 44.33408 10.50592 36180 ft 454 kts 56°
2026-04-26 22:47 44.36694 10.58117 36166 ft 455 kts 56°
2026-04-26 22:48 44.39969 10.65634 36153 ft 454 kts 57°
2026-04-26 22:48 44.43253 10.73189 36143 ft 455 kts 57°
2026-04-26 22:49 44.46541 10.80773 36130 ft 456 kts 57°
2026-04-26 22:49 44.49817 10.88349 36127 ft 456 kts 57°
2026-04-26 22:50 44.53096 10.95957 36126 ft 456 kts 57°
2026-04-26 22:50 44.56353 11.03533 36111 ft 456 kts 57°
2026-04-26 22:51 44.59611 11.11129 36110 ft 456 kts 57°
2026-04-26 22:51 44.62873 11.18754 36111 ft 456 kts 57°
2026-04-26 22:52 44.66126 11.26377 36108 ft 456 kts 57°
2026-04-26 22:52 44.69373 11.34006 36109 ft 457 kts 57°
2026-04-26 22:53 44.72643 11.41713 36103 ft 456 kts 57°
2026-04-26 22:53 44.75875 11.49347 36104 ft 456 kts 57°
2026-04-26 22:54 44.79100 11.56989 36097 ft 456 kts 56°
2026-04-26 22:54 44.82354 11.64725 36094 ft 456 kts 57°
2026-04-26 22:55 44.85576 11.72405 36101 ft 457 kts 57°
2026-04-26 22:55 44.88800 11.80109 36092 ft 457 kts 57°
2026-04-26 22:56 44.92017 11.87816 36094 ft 457 kts 57°
2026-04-26 22:56 44.95235 11.95547 36090 ft 458 kts 57°
2026-04-26 22:57 44.98437 12.03263 36092 ft 457 kts 57°
2026-04-26 22:57 45.01646 12.11014 36091 ft 457 kts 57°
2026-04-26 22:58 45.04849 12.18775 36092 ft 458 kts 57°
2026-04-26 22:58 45.08060 12.26579 36091 ft 458 kts 57°
2026-04-26 22:59 45.11240 12.34329 36097 ft 457 kts 57°
2026-04-26 22:59 45.14421 12.42098 36096 ft 457 kts 57°
2026-04-26 23:00 45.17611 12.49912 36098 ft 457 kts 57°
2026-04-26 23:00 45.20793 12.57721 36096 ft 457 kts 57°
2026-04-26 23:01 45.23930 12.65440 36097 ft 457 kts 58°
2026-04-26 23:01 45.27107 12.73285 36096 ft 457 kts 58°
2026-04-26 23:02 45.30284 12.81151 36098 ft 458 kts 58°
2026-04-26 23:02 45.31872 12.85091 35962 ft 461 kts 58°
2026-04-26 23:02 45.33452 12.89017 35727 ft 459 kts 57°
2026-04-26 23:02 45.35030 12.92944 35494 ft 457 kts 57°
2026-04-26 23:03 45.36602 12.96863 35261 ft 457 kts 57°
2026-04-26 23:03 45.38176 13.00792 35029 ft 459 kts 57°
2026-04-26 23:03 45.39751 13.04724 34796 ft 457 kts 57°
2026-04-26 23:03 45.41309 13.08624 34522 ft 453 kts 57°
2026-04-26 23:04 45.42861 13.12514 34250 ft 453 kts 58°
2026-04-26 23:04 45.44423 13.16434 34110 ft 452 kts 58°
2026-04-26 23:04 45.45960 13.20298 34113 ft 454 kts 58°
2026-04-26 23:05 45.49082 13.28159 34120 ft 457 kts 58°
2026-04-26 23:05 45.52200 13.36033 34121 ft 456 kts 58°
2026-04-26 23:06 45.55301 13.43886 34127 ft 457 kts 58°
2026-04-26 23:06 45.58443 13.51776 34144 ft 456 kts 56°
2026-04-26 23:07 45.61910 13.59355 34140 ft 456 kts 52°
2026-04-26 23:07 45.65565 13.66737 34148 ft 456 kts 52°
2026-04-26 23:08 45.69220 13.74064 34177 ft 457 kts 52°
2026-04-26 23:08 45.72920 13.81547 34170 ft 456 kts 52°
2026-04-26 23:09 45.76543 13.88949 34184 ft 457 kts 52°
2026-04-26 23:09 45.80176 13.96424 34183 ft 456 kts 52°
2026-04-26 23:10 45.83803 14.03909 34194 ft 457 kts 52°
2026-04-26 23:10 45.87415 14.11388 34200 ft 457 kts 52°
2026-04-26 23:11 45.91039 14.18917 34209 ft 459 kts 52°
2026-04-26 23:11 45.94666 14.26461 34210 ft 459 kts 52°
2026-04-26 23:12 45.98284 14.34010 34214 ft 459 kts 52°
2026-04-26 23:12 46.01880 14.41535 34225 ft 458 kts 52°
2026-04-26 23:13 46.05477 14.49086 34234 ft 458 kts 52°
2026-04-26 23:13 46.09065 14.56633 34239 ft 457 kts 52°
2026-04-26 23:14 46.12646 14.64185 34243 ft 458 kts 52°
2026-04-26 23:14 46.16241 14.71791 34244 ft 458 kts 53°
2026-04-26 23:15 46.19821 14.79383 34241 ft 458 kts 53°
2026-04-26 23:15 46.23401 14.86997 34245 ft 459 kts 53°
2026-04-26 23:16 46.26961 14.94596 34248 ft 458 kts 53°
2026-04-26 23:16 46.30534 15.02244 34256 ft 458 kts 53°
2026-04-26 23:17 46.34095 15.09886 34260 ft 458 kts 53°
2026-04-26 23:17 46.37626 15.17476 34253 ft 457 kts 53°
2026-04-26 23:18 46.41171 15.25117 34237 ft 458 kts 53°
2026-04-26 23:18 46.44721 15.32789 34230 ft 457 kts 53°
2026-04-26 23:19 46.48260 15.40457 34230 ft 458 kts 53°
2026-04-26 23:19 46.51912 15.48050 34232 ft 455 kts 47°
2026-04-26 23:19 46.54081 15.51349 34231 ft 449 kts 35°
2026-04-26 23:20 46.56639 15.53868 34244 ft 442 kts 24°
2026-04-26 23:20 46.59361 15.55823 34239 ft 431 kts 20°
2026-04-26 23:20 46.62069 15.57549 33847 ft 424 kts 18°
2026-04-26 23:20 46.64782 15.59172 33304 ft 422 kts 17°
2026-04-26 23:21 46.67503 15.60764 32758 ft 419 kts 17°
2026-04-26 23:21 46.70214 15.62350 32216 ft 417 kts 17°
2026-04-26 23:21 46.72898 15.63936 31679 ft 416 kts 17°
2026-04-26 23:21 46.75579 15.65536 31144 ft 418 kts 18°
2026-04-26 23:22 46.78254 15.67147 30617 ft 421 kts 18°
2026-04-26 23:22 46.80979 15.68801 30067 ft 423 kts 18°
2026-04-26 23:22 46.83698 15.70462 29531 ft 424 kts 18°
2026-04-26 23:22 46.86423 15.72132 28987 ft 426 kts 19°
2026-04-26 23:23 46.89181 15.73827 28450 ft 433 kts 19°
2026-04-26 23:23 46.91983 15.75548 27916 ft 444 kts 19°
2026-04-26 23:23 46.94821 15.77299 27368 ft 442 kts 19°
2026-04-26 23:23 46.97665 15.79061 26819 ft 436 kts 19°
2026-04-26 23:24 47.00420 15.80773 26291 ft 432 kts 19°
2026-04-26 23:24 47.03164 15.82480 25758 ft 429 kts 19°
2026-04-26 23:24 47.05955 15.84216 25212 ft 427 kts 19°
2026-04-26 23:24 47.08649 15.85892 24694 ft 425 kts 19°
2026-04-26 23:25 47.11396 15.87603 24159 ft 422 kts 19°
2026-04-26 23:25 47.14069 15.89270 23640 ft 419 kts 19°
2026-04-26 23:25 47.16783 15.90965 23117 ft 416 kts 19°
2026-04-26 23:25 47.19424 15.92615 22601 ft 412 kts 19°
2026-04-26 23:26 47.22083 15.94278 22090 ft 408 kts 20°
2026-04-26 23:26 47.24661 15.95891 21576 ft 404 kts 20°
2026-04-26 23:26 47.27258 15.97518 21063 ft 401 kts 20°
2026-04-26 23:26 47.29820 15.99124 20563 ft 398 kts 20°
2026-04-26 23:27 47.32361 16.00717 20063 ft 395 kts 20°
2026-04-26 23:27 47.34898 16.02310 19554 ft 391 kts 20°
2026-04-26 23:27 47.37381 16.03862 19055 ft 387 kts 19°
2026-04-26 23:27 47.39052 16.04822 18719 ft 385 kts 17°
2026-04-26 23:28 47.42405 16.06514 18054 ft 379 kts 15°
2026-04-26 23:28 47.44906 16.07690 17553 ft 374 kts 14°
2026-04-26 23:28 47.47395 16.08858 17046 ft 370 kts 15°
2026-04-26 23:28 47.49843 16.10025 16542 ft 366 kts 15°
2026-04-26 23:29 47.52223 16.11180 16046 ft 362 kts 15°
2026-04-26 23:29 47.54621 16.12361 15540 ft 358 kts 15°
2026-04-26 23:29 47.56964 16.13524 15041 ft 354 kts 15°
2026-04-26 23:29 47.59300 16.14686 14538 ft 350 kts 15°
2026-04-26 23:30 47.61575 16.15821 14043 ft 347 kts 15°
2026-04-26 23:30 47.63864 16.16965 13544 ft 343 kts 15°
2026-04-26 23:30 47.66127 16.18098 13047 ft 339 kts 15°
2026-04-26 23:30 47.68333 16.19205 12554 ft 336 kts 14°
2026-04-26 23:31 47.70563 16.20322 12052 ft 333 kts 14°
2026-04-26 23:31 47.72744 16.21415 11556 ft 331 kts 14°
2026-04-26 23:31 47.74915 16.22506 11059 ft 328 kts 14°
2026-04-26 23:31 47.77005 16.23830 10560 ft 330 kts 24°
2026-04-26 23:32 47.78893 16.25793 10242 ft 326 kts 35°
2026-04-26 23:32 47.80577 16.28004 10092 ft 315 kts 38°
2026-04-26 23:32 47.82158 16.30206 9939 ft 304 kts 38°
2026-04-26 23:32 47.83682 16.32309 9789 ft 293 kts 37°
2026-04-26 23:33 47.85178 16.34317 9648 ft 288 kts 36°
2026-04-26 23:33 47.86677 16.36280 9504 ft 288 kts 36°
2026-04-26 23:33 47.88209 16.38263 9367 ft 288 kts 36°
2026-04-26 23:33 47.89715 16.40204 9219 ft 287 kts 36°
2026-04-26 23:34 47.91219 16.42147 9070 ft 287 kts 36°
2026-04-26 23:34 47.92731 16.44054 8912 ft 284 kts 32°
2026-04-26 23:34 47.94407 16.45647 8773 ft 280 kts 23°
2026-04-26 23:34 47.96129 16.46904 8633 ft 276 kts 19°
2026-04-26 23:35 47.97956 16.47740 8476 ft 271 kts
2026-04-26 23:35 47.99826 16.47787 8263 ft 267 kts 350°
2026-04-26 23:35 48.01644 16.47246 8006 ft 263 kts 339°
2026-04-26 23:35 48.03246 16.46048 7755 ft 259 kts 322°
2026-04-26 23:36 48.04552 16.44209 7515 ft 258 kts 309°
2026-04-26 23:36 48.05615 16.42021 7256 ft 258 kts 302°
2026-04-26 23:36 48.06533 16.39725 7001 ft 257 kts 299°
2026-04-26 23:36 48.07422 16.37392 6739 ft 257 kts 299°
2026-04-26 23:37 48.08317 16.35070 6483 ft 258 kts 300°
2026-04-26 23:37 48.09226 16.32756 6220 ft 258 kts 300°
2026-04-26 23:37 48.10138 16.30463 5968 ft 258 kts 300°
2026-04-26 23:37 48.11065 16.28134 5711 ft 259 kts 300°
2026-04-26 23:38 48.11972 16.25850 5450 ft 260 kts 300°
2026-04-26 23:38 48.12849 16.23425 5188 ft 260 kts 296°
2026-04-26 23:38 48.13627 16.21005 4980 ft 259 kts 295°
2026-04-26 23:38 48.14398 16.18537 4967 ft 261 kts 295°
2026-04-26 23:39 48.15172 16.16090 4969 ft 262 kts 295°
2026-04-26 23:39 48.15969 16.13607 4965 ft 262 kts 296°
2026-04-26 23:39 48.16763 16.11148 4967 ft 263 kts 295°
2026-04-26 23:39 48.17557 16.08681 4973 ft 263 kts 296°
2026-04-26 23:40 48.18355 16.06213 4970 ft 259 kts 296°
2026-04-26 23:40 48.19122 16.03864 4971 ft 243 kts 298°
2026-04-26 23:40 48.20221 16.02058 4976 ft 233 kts 330°
2026-04-26 23:40 48.21766 16.01416 4979 ft 235 kts 358°
2026-04-26 23:41 48.23389 16.01783 4973 ft 235 kts 18°
2026-04-26 23:41 48.24867 16.02872 4968 ft 241 kts 37°
2026-04-26 23:41 48.25883 16.04799 4966 ft 236 kts 68°
2026-04-26 23:41 48.26167 16.07146 4975 ft 220 kts 90°
2026-04-26 23:42 48.25977 16.09306 4959 ft 204 kts 105°
2026-04-26 23:42 48.24953 16.13131 4964 ft 196 kts 112°
2026-04-26 23:42 48.24447 16.14988 4959 ft 186 kts 111°
2026-04-26 23:43 48.23984 16.16753 4967 ft 180 kts 111°
2026-04-26 23:43 48.23526 16.18504 4960 ft 180 kts 111°
2026-04-26 23:43 48.23033 16.20236 4961 ft 180 kts 115°
2026-04-26 23:43 48.22485 16.21940 4964 ft 180 kts 116°
2026-04-26 23:44 48.21940 16.23583 4972 ft 171 kts 116°
2026-04-26 23:44 48.21444 16.25101 4945 ft 154 kts 115°
2026-04-26 23:44 48.20972 16.26564 4899 ft 157 kts 115°
2026-04-26 23:44 48.20499 16.28029 4530 ft 156 kts 115°
2026-04-26 23:45 48.20042 16.29443 4253 ft 147 kts 115°
2026-04-26 23:45 48.19600 16.30811 4105 ft 146 kts 115°
2026-04-26 23:45 48.19159 16.32175 3887 ft 146 kts 115°
2026-04-26 23:45 48.18723 16.33522 3688 ft 142 kts 115°
2026-04-26 23:46 48.18292 16.34855 3455 ft 141 kts 115°
2026-04-26 23:46 48.17870 16.36160 3259 ft 139 kts 115°
2026-04-26 23:46 48.17452 16.37448 3061 ft 138 kts 115°
2026-04-26 23:46 48.17036 16.38733 2864 ft 137 kts 115°
2026-04-26 23:47 48.16616 16.40025 2661 ft 136 kts 115°
2026-04-26 23:47 48.16207 16.41287 2466 ft 136 kts 115°
2026-04-26 23:47 48.15788 16.42576 2271 ft 136 kts 115°
2026-04-26 23:47 48.15381 16.43830 2077 ft 135 kts 115°
2026-04-26 23:48 48.14965 16.45109 1880 ft 135 kts 115°
2026-04-26 23:48 48.14555 16.46371 1686 ft 135 kts 115°
2026-04-26 23:48 48.14137 16.47657 1491 ft 136 kts 115°
2026-04-26 23:48 48.13721 16.48933 1281 ft 137 kts 115°
2026-04-26 23:49 48.13302 16.50202 1109 ft 136 kts 115°
2026-04-26 23:49 48.12886 16.51466 914 ft 136 kts 115°
2026-04-26 23:49 48.12475 16.52744 687 ft 135 kts 115°
2026-04-26 23:49 48.12078 16.54001 586 ft 123 kts 115°
2026-04-26 23:50 48.11771 16.54916 590 ft 73 kts 117°
2026-04-26 23:50 48.11585 16.55477 592 ft 46 kts 115°
2026-04-26 23:50 48.11505 16.55799 594 ft 24 kts 96°
2026-04-26 23:50 48.11503 16.55977 595 ft 4 kts 85°
2026-04-26 23:51 48.11503 16.55980 595 ft 0 kts 85°
2026-04-26 23:51 48.11503 16.55983 595 ft 2 kts 85°
2026-04-26 23:51 48.11509 16.56078 596 ft 13 kts 74°
2026-04-26 23:52 48.11589 16.56174 597 ft 13 kts 27°
2026-04-26 23:52 48.11667 16.56147 596 ft 13 kts 303°
2026-04-26 23:52 48.11711 16.56018 594 ft 14 kts 297°
2026-04-26 23:52 48.11756 16.55877 593 ft 15 kts 294°
2026-04-26 23:53 48.11799 16.55723 592 ft 16 kts 294°
2026-04-26 23:53 48.11855 16.55574 591 ft 16 kts 296°
2026-04-26 23:53 48.11899 16.55404 590 ft 17 kts 291°
2026-04-26 23:53 48.11916 16.55347 590 ft 3 kts 296°
2026-04-26 23:54 48.11948 16.55314 590 ft 8 kts
2026-04-26 23:54 48.12014 16.55353 589 ft 8 kts 23°
2026-04-26 23:54 48.12056 16.55312 589 ft 5 kts 296°
2026-04-26 23:54 48.12062 16.55295 589 ft 2 kts 295°
2026-04-26 23:55 48.12062 16.55293 589 ft 0 kts 295°
2026-04-26 23:55 48.12063 16.55292 589 ft 0 kts 295°